Location: Newark
(48.4472°N, 1.4892°E)
Time: 09:33:55
(UTC+00:00)

Courier 1B Rocket - All Passes

Search period start: 15 November 2019 00:00
Search period end: 25 November 2019 00:00
Orbit: 920 x 1202 km, 28.2° (Epoch: 14 November)

Date Brightness Start Highest point End Pass type
(mag) Time Alt. Az. Time Alt. Az. Time Alt. Az.
15 Nov - 16:43:45 10° SSW 16:46:58 13° SSE 16:50:14 10° SE visible
15 Nov - 18:34:55 10° SW 18:39:12 16° S 18:43:31 10° SSE visible
15 Nov - 20:29:26 10° SSW 20:31:24 11° SSW 20:33:23 10° S visible
16 Nov - 15:44:52 10° S 15:46:15 11° SSE 15:47:40 10° SSE daylight
16 Nov - 17:34:13 10° SSW 17:38:25 16° S 17:42:39 10° SE visible
16 Nov - 19:27:17 10° SW 19:30:39 13° SSW 19:34:02 10° SSE visible
17 Nov - 16:33:53 10° SSW 16:37:39 14° S 16:41:29 10° SE daylight
17 Nov - 18:25:57 10° SW 18:29:53 15° S 18:33:51 10° SSE visible
18 Nov - 15:34:03 10° S 15:36:54 12° SSE 15:39:50 10° SE daylight
18 Nov - 17:25:02 10° SW 17:29:06 15° S 17:33:15 10° SSE visible
18 Nov - 19:19:33 10° SSW 19:21:18 11° SSW 19:23:04 10° S visible
19 Nov - 16:24:27 10° SSW 16:28:21 15° S 16:32:19 10° SE daylight
19 Nov - 18:17:27 10° SW 18:20:34 13° SSW 18:23:43 10° SSE visible
20 Nov - 15:24:15 10° SSW 15:27:37 14° S 15:31:03 10° SE daylight
20 Nov - 17:16:11 10° SW 17:19:48 14° S 17:23:30 10° SSE visible
21 Nov - 14:24:38 10° S 14:26:55 12° SSE 14:29:16 10° SSE daylight
21 Nov - 16:15:22 10° SSW 16:19:03 15° S 16:22:50 10° SSE daylight
21 Nov - 18:10:17 10° SSW 18:11:14 10° SSW 18:12:11 10° S visible
22 Nov - 15:14:53 10° SSW 15:18:20 14° S 15:21:53 10° SSE daylight
22 Nov - 17:07:54 10° SSW 17:10:31 12° SSW 17:13:11 10° S visible
23 Nov - 14:14:49 10° SSW 14:17:40 13° S 14:20:34 10° SSE daylight
23 Nov - 16:06:41 10° SSW 16:09:48 13° S 16:12:59 10° SSE daylight
24 Nov - 13:15:31 10° S 13:17:02 11° SSE 13:18:33 10° SSE daylight
24 Nov - 15:05:55 10° SSW 15:09:05 13° S 15:12:21 10° SSE daylight
